User: anonymous   Login
Location: Unspecified
(0.0000°N, 0.0000°E)
Time: 20:41:14
(UTC+00:00)
Language:

COSMOS 2483 - Orbit

View from above orbital plane
View from above orbital plane
View from above satellite
View from above satellite

Ground track
Ground track

The orbit data is extracted from the following two-line orbital elements,

1 39058U 13001B   17172.89993087 +.00000042 +00000-0 +22797-3 0  9997
2 39058 082.5004 100.3941 0016609 351.6341 008.4462 12.43945022201187
Epoch (UTC): 21 June 2017 21:35:54
Eccentricity: 0.0016609
inclination: 82.5004°
perigee height: 1477 km
apogee height: 1503 km
right ascension of ascending node: 100.3941°
argument of perigee: 351.6341°
revolutions per day: 12.43945022
mean anomaly at epoch: 8.4462°
orbit number at epoch: 20118

The dashed part of the orbit path shows where the satellite is in the earth's shadow,  

DLR